Wetterdaten: Montag, 09.03.2015
Datum Zeit Temperatur Luftfeuchte Luftdruck Regen Wind Richtung Richtung Sonnenschein ET UV Solar Taupunkt Windchill Windben
09.03.2015 00:00 2,1 C 88 % 1024,8 hPa 0,0 l/m 0,0 km/h (0 Bft) W-SW 248 0 min 0,000 mm 0,0 UV-I 0 W/m 0,3 C 2,1 C 0,0 km/h (0 Bft)
09.03.2015 00:05 2,1 C 88 % 1025,0 hPa 0,0 l/m 0,0 km/h (0 Bft) W-SW 248 0 min 0,000 mm 0,0 UV-I 0 W/m 0,3 C 2,1 C 0,0 km/h (0 Bft)
09.03.2015 00:10 1,8 C 89 % 1025,0 hPa 0,0 l/m 0,8 km/h (0 Bft) W-SW 248 0 min 0,000 mm 0,0 UV-I 0 W/m 0,2 C 1,8 C 4,8 km/h (1 Bft)
09.03.2015 00:15 1,8 C 89 % 1024,9 hPa 0,0 l/m 0,0 km/h (0 Bft) W-SW 248 0 min 0,000 mm 0,0 UV-I 0 W/m 0,2 C 1,8 C 1,6 km/h (1 Bft)
09.03.2015 00:20 1,7 C 89 % 1024,9 hPa 0,0 l/m 0,0 km/h (0 Bft) W-SW 248 0 min 0,000 mm 0,0 UV-I 0 W/m 0,1 C 1,7 C 1,6 km/h (1 Bft)
09.03.2015 00:25 1,7 C 90 % 1024,8 hPa 0,0 l/m 0,0 km/h (0 Bft) W-SW 248 0 min 0,000 mm 0,0 UV-I 0 W/m 0,2 C 1,7 C 0,0 km/h (0 Bft)
09.03.2015 00:30 1,7 C 90 % 1024,8 hPa 0,0 l/m 0,0 km/h (0 Bft) W-SW 248 0 min 0,000 mm 0,0 UV-I 0 W/m 0,2 C 1,7 C 0,0 km/h (0 Bft)
09.03.2015 00:35 1,7 C 90 % 1024,7 hPa 0,0 l/m 0,0 km/h (0 Bft) W-SW 248 0 min 0,000 mm 0,0 UV-I 0 W/m 0,2 C 1,7 C 0,0 km/h (0 Bft)
09.03.2015 00:40 1,6 C 90 % 1024,8 hPa 0,0 l/m 0,0 km/h (0 Bft) W-SW 248 0 min 0,000 mm 0,0 UV-I 0 W/m 0,1 C 1,6 C 0,0 km/h (0 Bft)
09.03.2015 00:45 1,5 C 90 % 1025,0 hPa 0,0 l/m 0,0 km/h (0 Bft) W-SW 248 0 min 0,000 mm 0,0 UV-I 0 W/m 0,0 C 1,5 C 0,0 km/h (0 Bft)
09.03.2015 00:50 1,4 C 90 % 1024,9 hPa 0,0 l/m 0,0 km/h (0 Bft) W-SW 248 0 min 0,000 mm 0,0 UV-I 0 W/m -0,1 C 1,4 C 0,0 km/h (0 Bft)
09.03.2015 00:55 1,3 C 90 % 1024,9 hPa 0,0 l/m 0,0 km/h (0 Bft) W-SW 248 0 min 0,000 mm 0,0 UV-I 0 W/m -0,2 C 1,3 C 0,0 km/h (0 Bft)
09.03.2015 01:00 1,2 C 90 % 1024,9 hPa 0,0 l/m 0,0 km/h (0 Bft) W-SW 248 0 min 0,000 mm 0,0 UV-I 0 W/m -0,3 C 1,2 C 0,0 km/h (0 Bft)
09.03.2015 01:05 1,1 C 90 % 1025,0 hPa 0,0 l/m 0,0 km/h (0 Bft) W-SW 248 0 min 0,000 mm 0,0 UV-I 0 W/m -0,4 C 1,1 C 0,0 km/h (0 Bft)
09.03.2015 01:10 1,1 C 90 % 1024,9 hPa 0,0 l/m 0,0 km/h (0 Bft) W-SW 248 0 min 0,000 mm 0,0 UV-I 0 W/m -0,4 C 1,1 C 0,0 km/h (0 Bft)
09.03.2015 01:15 1,0 C 90 % 1024,8 hPa 0,0 l/m 0,0 km/h (0 Bft) W-SW 248 0 min 0,000 mm 0,0 UV-I 0 W/m -0,5 C 1,0 C 0,0 km/h (0 Bft)
09.03.2015 01:20 1,0 C 90 % 1024,9 hPa 0,0 l/m 0,0 km/h (0 Bft) W-SW 248 0 min 0,000 mm 0,0 UV-I 0 W/m -0,5 C 1,0 C 1,6 km/h (1 Bft)
09.03.2015 01:25 0,9 C 91 % 1025,0 hPa 0,0 l/m 0,0 km/h (0 Bft) W-SW 248 0 min 0,000 mm 0,0 UV-I 0 W/m -0,4 C 0,9 C 0,0 km/h (0 Bft)
09.03.2015 01:30 0,9 C 90 % 1025,0 hPa 0,0 l/m 0,0 km/h (0 Bft) W-SW 248 0 min 0,000 mm 0,0 UV-I 0 W/m -0,6 C 0,9 C 0,0 km/h (0 Bft)
09.03.2015 01:35 0,8 C 90 % 1025,2 hPa 0,0 l/m 0,0 km/h (0 Bft) W-SW 248 0 min 0,000 mm 0,0 UV-I 0 W/m -0,6 C 0,8 C 1,6 km/h (1 Bft)
09.03.2015 01:40 0,7 C 91 % 1025,3 hPa 0,0 l/m 0,2 km/h (0 Bft) W-SW 248 0 min 0,000 mm 0,0 UV-I 0 W/m -0,6 C 0,7 C 1,6 km/h (1 Bft)
09.03.2015 01:45 0,9 C 92 % 1025,1 hPa 0,0 l/m 0,1 km/h (0 Bft) W-SW 248 0 min 0,000 mm 0,0 UV-I 0 W/m -0,2 C 0,9 C 1,6 km/h (1 Bft)
09.03.2015 01:50 0,9 C 92 % 1025,2 hPa 0,0 l/m 0,0 km/h (0 Bft) W-SW 248 0 min 0,000 mm 0,0 UV-I 0 W/m -0,2 C 0,9 C 0,0 km/h (0 Bft)
09.03.2015 01:55 0,9 C 91 % 1025,3 hPa 0,0 l/m 0,0 km/h (0 Bft) W-SW 248 0 min 0,000 mm 0,0 UV-I 0 W/m -0,4 C 0,9 C 0,0 km/h (0 Bft)
09.03.2015 02:00 0,8 C 91 % 1025,4 hPa 0,0 l/m 0,0 km/h (0 Bft) W-SW 248 0 min 0,000 mm 0,0 UV-I 0 W/m -0,5 C 0,8 C 0,0 km/h (0 Bft)
09.03.2015 02:05 0,7 C 91 % 1025,4 hPa 0,0 l/m 0,0 km/h (0 Bft) W-SW 248 0 min 0,000 mm 0,0 UV-I 0 W/m -0,6 C 0,7 C 0,0 km/h (0 Bft)
09.03.2015 02:10 0,6 C 91 % 1025,4 hPa 0,0 l/m 0,1 km/h (0 Bft) W-SW 248 0 min 0,000 mm 0,0 UV-I 0 W/m -0,7 C 0,6 C 1,6 km/h (1 Bft)
09.03.2015 02:15 0,7 C 92 % 1025,5 hPa 0,0 l/m 0,3 km/h (0 Bft) W-SW 249 0 min 0,000 mm 0,0 UV-I 0 W/m -0,4 C 0,7 C 3,2 km/h (1 Bft)
09.03.2015 02:20 0,7 C 92 % 1025,5 hPa 0,0 l/m 0,6 km/h (0 Bft) W-NW 303 0 min 0,000 mm 0,0 UV-I 0 W/m -0,4 C 0,7 C 4,8 km/h (1 Bft)
09.03.2015 02:25 0,8 C 92 % 1025,4 hPa 0,0 l/m 0,1 km/h (0 Bft) W-NW 303 0 min 0,000 mm 0,0 UV-I 0 W/m -0,3 C 0,8 C 3,2 km/h (1 Bft)
09.03.2015 02:30 0,8 C 92 % 1025,4 hPa 0,0 l/m 0,0 km/h (0 Bft) W-NW 303 0 min 0,000 mm 0,0 UV-I 0 W/m -0,3 C 0,8 C 1,6 km/h (1 Bft)
09.03.2015 02:35 0,7 C 92 % 1025,4 hPa 0,0 l/m 0,0 km/h (0 Bft) W-NW 303 0 min 0,000 mm 0,0 UV-I 0 W/m -0,4 C 0,7 C 0,0 km/h (0 Bft)
09.03.2015 02:40 0,5 C 91 % 1025,4 hPa 0,0 l/m 0,0 km/h (0 Bft) W-NW 303 0 min 0,000 mm 0,0 UV-I 0 W/m -0,8 C 0,5 C 0,0 km/h (0 Bft)
09.03.2015 02:45 0,0 C 91 % 1025,3 hPa 0,0 l/m 0,2 km/h (0 Bft) NO 36 0 min 0,000 mm 0,0 UV-I 0 W/m -1,3 C 0,0 C 1,6 km/h (1 Bft)
09.03.2015 02:50 -0,3 C 91 % 1025,4 hPa 0,0 l/m 0,0 km/h (0 Bft) NO 36 0 min 0,000 mm 0,0 UV-I 0 W/m -1,6 C -0,3 C 0,0 km/h (0 Bft)
09.03.2015 02:55 -0,3 C 91 % 1025,4 hPa 0,0 l/m 0,0 km/h (0 Bft) NO 36 0 min 0,000 mm 0,0 UV-I 0 W/m -1,6 C -0,3 C 0,0 km/h (0 Bft)
09.03.2015 03:00 -0,4 C 92 % 1025,4 hPa 0,0 l/m 0,0 km/h (0 Bft) NO 36 0 min 0,000 mm 0,0 UV-I 0 W/m -1,5 C -0,4 C 0,0 km/h (0 Bft)
09.03.2015 03:05 -0,2 C 93 % 1025,4 hPa 0,0 l/m 0,0 km/h (0 Bft) NO 36 0 min 0,000 mm 0,0 UV-I 0 W/m -1,2 C -0,2 C 0,0 km/h (0 Bft)
09.03.2015 03:10 -0,2 C 92 % 1025,4 hPa 0,0 l/m 0,0 km/h (0 Bft) NO 36 0 min 0,000 mm 0,0 UV-I 0 W/m -1,3 C -0,2 C 0,0 km/h (0 Bft)
09.03.2015 03:15 -0,3 C 92 % 1025,4 hPa 0,0 l/m 0,0 km/h (0 Bft) NO 36 0 min 0,000 mm 0,0 UV-I 0 W/m -1,4 C -0,3 C 0,0 km/h (0 Bft)
09.03.2015 03:20 -0,3 C 92 % 1025,3 hPa 0,0 l/m 0,0 km/h (0 Bft) NO 36 0 min 0,000 mm 0,0 UV-I 0 W/m -1,4 C -0,3 C 0,0 km/h (0 Bft)
09.03.2015 03:25 -0,3 C 93 % 1025,4 hPa 0,0 l/m 0,0 km/h (0 Bft) NO 36 0 min 0,000 mm 0,0 UV-I 0 W/m -1,3 C -0,3 C 0,0 km/h (0 Bft)
09.03.2015 03:30 -0,2 C 93 % 1025,3 hPa 0,0 l/m 0,0 km/h (0 Bft) NO 36 0 min 0,000 mm 0,0 UV-I 0 W/m -1,2 C -0,2 C 0,0 km/h (0 Bft)
09.03.2015 03:35 -0,2 C 93 % 1025,2 hPa 0,0 l/m 0,0 km/h (0 Bft) NO 36 0 min 0,000 mm 0,0 UV-I 0 W/m -1,2 C -0,2 C 0,0 km/h (0 Bft)
09.03.2015 03:40 -0,3 C 93 % 1025,2 hPa 0,0 l/m 0,0 km/h (0 Bft) NO 36 0 min 0,000 mm 0,0 UV-I 0 W/m -1,3 C -0,3 C 0,0 km/h (0 Bft)
09.03.2015 03:45 -0,3 C 93 % 1025,3 hPa 0,0 l/m 0,0 km/h (0 Bft) NO 36 0 min 0,000 mm 0,0 UV-I 0 W/m -1,3 C -0,3 C 0,0 km/h (0 Bft)
09.03.2015 03:50 -0,4 C 93 % 1025,4 hPa 0,0 l/m 0,0 km/h (0 Bft) NO 36 0 min 0,000 mm 0,0 UV-I 0 W/m -1,4 C -0,4 C 0,0 km/h (0 Bft)
09.03.2015 03:55 -0,4 C 93 % 1025,5 hPa 0,0 l/m 0,0 km/h (0 Bft) NO 36 0 min 0,000 mm 0,0 UV-I 0 W/m -1,4 C -0,4 C 0,0 km/h (0 Bft)
09.03.2015 04:00 -0,6 C 92 % 1025,6 hPa 0,0 l/m 0,0 km/h (0 Bft) NO 36 0 min 0,000 mm 0,0 UV-I 0 W/m -1,7 C -0,6 C 0,0 km/h (0 Bft)
09.03.2015 04:05 -0,6 C 92 % 1025,6 hPa 0,0 l/m 0,0 km/h (0 Bft) NO 36 0 min 0,000 mm 0,0 UV-I 0 W/m -1,7 C -0,6 C 0,0 km/h (0 Bft)
09.03.2015 04:10 -0,7 C 93 % 1025,7 hPa 0,0 l/m 0,0 km/h (0 Bft) NO 36 0 min 0,000 mm 0,0 UV-I 0 W/m -1,7 C -0,7 C 0,0 km/h (0 Bft)
09.03.2015 04:15 -0,7 C 93 % 1025,9 hPa 0,0 l/m 0,0 km/h (0 Bft) NO 36 0 min 0,000 mm 0,0 UV-I 0 W/m -1,7 C -0,7 C 0,0 km/h (0 Bft)
09.03.2015 04:20 -0,7 C 93 % 1025,8 hPa 0,0 l/m 0,0 km/h (0 Bft) NO 36 0 min 0,000 mm 0,0 UV-I 0 W/m -1,7 C -0,7 C 0,0 km/h (0 Bft)
09.03.2015 04:25 -0,7 C 93 % 1026,0 hPa 0,0 l/m 0,0 km/h (0 Bft) NO 36 0 min 0,000 mm 0,0 UV-I 0 W/m -1,7 C -0,7 C 0,0 km/h (0 Bft)
09.03.2015 04:30 -0,7 C 93 % 1026,1 hPa 0,0 l/m 0,0 km/h (0 Bft) NO 36 0 min 0,000 mm 0,0 UV-I 0 W/m -1,7 C -0,7 C 0,0 km/h (0 Bft)
09.03.2015 04:35 -0,7 C 93 % 1026,1 hPa 0,0 l/m 0,0 km/h (0 Bft) NO 36 0 min 0,000 mm 0,0 UV-I 0 W/m -1,7 C -0,7 C 0,0 km/h (0 Bft)
09.03.2015 04:40 -0,7 C 93 % 1026,2 hPa 0,0 l/m 0,0 km/h (0 Bft) NO 36 0 min 0,000 mm 0,0 UV-I 0 W/m -1,7 C -0,7 C 0,0 km/h (0 Bft)
09.03.2015 04:45 -0,8 C 93 % 1026,1 hPa 0,0 l/m 0,0 km/h (0 Bft) NO 36 0 min 0,000 mm 0,0 UV-I 0 W/m -1,8 C -0,8 C 0,0 km/h (0 Bft)
09.03.2015 04:50 -0,8 C 93 % 1026,2 hPa 0,0 l/m 0,0 km/h (0 Bft) NO 43 0 min 0,000 mm 0,0 UV-I 0 W/m -1,8 C -0,8 C 1,6 km/h (1 Bft)
09.03.2015 04:55 -0,9 C 93 % 1026,2 hPa 0,0 l/m 0,1 km/h (0 Bft) N 5 0 min 0,000 mm 0,0 UV-I 0 W/m -1,9 C -0,9 C 1,6 km/h (1 Bft)
09.03.2015 05:00 -0,9 C 93 % 1026,2 hPa 0,0 l/m 0,0 km/h (0 Bft) N 5 0 min 0,000 mm 0,0 UV-I 0 W/m -1,9 C -0,9 C 0,0 km/h (0 Bft)
09.03.2015 05:05 -0,9 C 93 % 1026,2 hPa 0,0 l/m 0,0 km/h (0 Bft) N 5 0 min 0,000 mm 0,0 UV-I 0 W/m -1,9 C -0,9 C 0,0 km/h (0 Bft)
09.03.2015 05:10 -0,8 C 93 % 1026,3 hPa 0,0 l/m 0,0 km/h (0 Bft) N 5 0 min 0,000 mm 0,0 UV-I 0 W/m -1,8 C -0,8 C 0,0 km/h (0 Bft)
09.03.2015 05:15 -0,7 C 94 % 1026,4 hPa 0,0 l/m 0,0 km/h (0 Bft) N 5 0 min 0,000 mm 0,0 UV-I 0 W/m -1,5 C -0,7 C 0,0 km/h (0 Bft)
09.03.2015 05:20 -0,7 C 94 % 1026,5 hPa 0,0 l/m 0,0 km/h (0 Bft) N 5 0 min 0,000 mm 0,0 UV-I 0 W/m -1,5 C -0,7 C 0,0 km/h (0 Bft)
09.03.2015 05:25 -0,5 C 94 % 1026,5 hPa 0,0 l/m 0,0 km/h (0 Bft) N 5 0 min 0,000 mm 0,0 UV-I 0 W/m -1,3 C -0,5 C 0,0 km/h (0 Bft)
09.03.2015 05:30 -0,3 C 94 % 1026,6 hPa 0,0 l/m 0,0 km/h (0 Bft) N 5 0 min 0,000 mm 0,0 UV-I 0 W/m -1,1 C -0,3 C 0,0 km/h (0 Bft)
09.03.2015 05:35 -0,3 C 94 % 1026,6 hPa 0,0 l/m 0,0 km/h (0 Bft) N 5 0 min 0,000 mm 0,0 UV-I 0 W/m -1,1 C -0,3 C 0,0 km/h (0 Bft)
09.03.2015 05:40 -0,2 C 94 % 1026,7 hPa 0,0 l/m 0,0 km/h (0 Bft) N 5 0 min 0,000 mm 0,0 UV-I 0 W/m -1,0 C -0,2 C 0,0 km/h (0 Bft)
09.03.2015 05:45 -0,1 C 94 % 1026,8 hPa 0,0 l/m 0,0 km/h (0 Bft) N 5 0 min 0,000 mm 0,0 UV-I 0 W/m -0,9 C -0,1 C 0,0 km/h (0 Bft)
09.03.2015 05:50 -0,1 C 94 % 1026,7 hPa 0,0 l/m 0,0 km/h (0 Bft) N 5 0 min 0,000 mm 0,0 UV-I 0 W/m -0,9 C -0,1 C 0,0 km/h (0 Bft)
09.03.2015 05:55 0,0 C 94 % 1026,7 hPa 0,0 l/m 0,0 km/h (0 Bft) N 5 0 min 0,000 mm 0,0 UV-I 0 W/m -0,8 C 0,0 C 0,0 km/h (0 Bft)
09.03.2015 06:00 0,1 C 94 % 1026,8 hPa 0,0 l/m 0,0 km/h (0 Bft) N 5 0 min 0,000 mm 0,0 UV-I 0 W/m -0,7 C 0,1 C 0,0 km/h (0 Bft)
09.03.2015 06:05 0,2 C 94 % 1026,8 hPa 0,0 l/m 0,0 km/h (0 Bft) N 5 0 min 0,000 mm 0,0 UV-I 0 W/m -0,6 C 0,2 C 0,0 km/h (0 Bft)
09.03.2015 06:10 0,2 C 94 % 1026,8 hPa 0,0 l/m 0,0 km/h (0 Bft) N 5 0 min 0,000 mm 0,0 UV-I 0 W/m -0,6 C 0,2 C 0,0 km/h (0 Bft)
09.03.2015 06:15 0,3 C 94 % 1026,8 hPa 0,0 l/m 0,0 km/h (0 Bft) N 5 0 min 0,000 mm 0,0 UV-I 0 W/m -0,5 C 0,3 C 0,0 km/h (0 Bft)
09.03.2015 06:20 0,3 C 94 % 1026,8 hPa 0,0 l/m 0,0 km/h (0 Bft) N 5 0 min 0,000 mm 0,0 UV-I 0 W/m -0,5 C 0,3 C 0,0 km/h (0 Bft)
09.03.2015 06:25 0,3 C 94 % 1026,7 hPa 0,0 l/m 0,0 km/h (0 Bft) N 5 0 min 0,000 mm 0,0 UV-I 0 W/m -0,5 C 0,3 C 0,0 km/h (0 Bft)
09.03.2015 06:30 0,3 C 94 % 1026,8 hPa 0,0 l/m 0,0 km/h (0 Bft) N 5 0 min 0,000 mm 0,0 UV-I 0 W/m -0,5 C 0,3 C 1,6 km/h (1 Bft)
09.03.2015 06:35 0,2 C 94 % 1026,9 hPa 0,0 l/m 0,0 km/h (0 Bft) N 5 0 min 0,000 mm 0,0 UV-I 0 W/m -0,6 C 0,2 C 0,0 km/h (0 Bft)
09.03.2015 06:40 0,2 C 94 % 1026,9 hPa 0,0 l/m 0,0 km/h (0 Bft) N 5 0 min 0,000 mm 0,0 UV-I 0 W/m -0,6 C 0,2 C 0,0 km/h (0 Bft)
09.03.2015 06:45 0,2 C 94 % 1026,9 hPa 0,0 l/m 0,0 km/h (0 Bft) N 5 0 min 0,000 mm 0,0 UV-I 0 W/m -0,6 C 0,2 C 0,0 km/h (0 Bft)
09.03.2015 06:50 0,2 C 94 % 1027,1 hPa 0,0 l/m 0,0 km/h (0 Bft) N 5 0 min 0,000 mm 0,0 UV-I 0 W/m -0,6 C 0,2 C 0,0 km/h (0 Bft)
09.03.2015 06:55 0,1 C 94 % 1027,1 hPa 0,0 l/m 0,0 km/h (0 Bft) N 5 0 min 0,000 mm 0,0 UV-I 0 W/m -0,7 C 0,1 C 0,0 km/h (0 Bft)
09.03.2015 07:00 0,1 C 94 % 1027,1 hPa 0,0 l/m 0,0 km/h (0 Bft) N 5 0 min 0,000 mm 0,0 UV-I 3 W/m -0,7 C 0,1 C 0,0 km/h (0 Bft)
09.03.2015 07:05 0,0 C 94 % 1027,0 hPa 0,0 l/m 0,0 km/h (0 Bft) N 5 0 min 0,000 mm 0,0 UV-I 7 W/m -0,8 C 0,0 C 0,0 km/h (0 Bft)
09.03.2015 07:10 -0,1 C 94 % 1027,1 hPa 0,0 l/m 0,0 km/h (0 Bft) N 5 0 min 0,000 mm 0,0 UV-I 11 W/m -0,9 C -0,1 C 0,0 km/h (0 Bft)
09.03.2015 07:15 0,0 C 94 % 1027,2 hPa 0,0 l/m 0,0 km/h (0 Bft) N 5 0 min 0,000 mm 0,0 UV-I 17 W/m -0,8 C 0,0 C 0,0 km/h (0 Bft)
09.03.2015 07:20 -0,1 C 94 % 1027,1 hPa 0,0 l/m 0,0 km/h (0 Bft) N 5 0 min 0,000 mm 0,0 UV-I 25 W/m -0,9 C -0,1 C 0,0 km/h (0 Bft)
09.03.2015 07:25 -0,1 C 94 % 1027,3 hPa 0,0 l/m 0,0 km/h (0 Bft) N 5 0 min 0,000 mm 0,0 UV-I 38 W/m -0,9 C -0,1 C 0,0 km/h (0 Bft)
09.03.2015 07:30 0,1 C 94 % 1027,3 hPa 0,0 l/m 0,0 km/h (0 Bft) N 5 5 min 0,000 mm 0,0 UV-I 52 W/m -0,7 C 0,1 C 0,0 km/h (0 Bft)
09.03.2015 07:35 0,3 C 94 % 1027,4 hPa 0,0 l/m 0,0 km/h (0 Bft) N 5 5 min 0,000 mm 0,0 UV-I 66 W/m -0,5 C 0,3 C 0,0 km/h (0 Bft)
09.03.2015 07:40 0,6 C 94 % 1027,5 hPa 0,0 l/m 0,0 km/h (0 Bft) N 5 5 min 0,000 mm 0,0 UV-I 71 W/m -0,3 C 0,6 C 0,0 km/h (0 Bft)
09.03.2015 07:45 0,8 C 94 % 1027,6 hPa 0,0 l/m 0,0 km/h (0 Bft) N 5 0 min 0,000 mm 0,0 UV-I 63 W/m -0,1 C 0,8 C 0,0 km/h (0 Bft)
09.03.2015 07:50 1,0 C 94 % 1027,7 hPa 0,0 l/m 0,0 km/h (0 Bft) N 5 0 min 0,000 mm 0,0 UV-I 62 W/m 0,1 C 1,0 C 0,0 km/h (0 Bft)
09.03.2015 07:55 1,0 C 94 % 1027,7 hPa 0,0 l/m 0,0 km/h (0 Bft) N 5 0 min 0,000 mm 0,0 UV-I 54 W/m 0,1 C 1,0 C 0,0 km/h (0 Bft)
09.03.2015 08:00 0,9 C 93 % 1027,8 hPa 0,0 l/m 0,0 km/h (0 Bft) N 5 0 min 0,025 mm 0,0 UV-I 53 W/m -0,1 C 0,9 C 1,6 km/h (1 Bft)
09.03.2015 08:05 0,9 C 94 % 1027,9 hPa 0,0 l/m 0,0 km/h (0 Bft) N 5 0 min 0,000 mm 0,0 UV-I 54 W/m 0,0 C 0,9 C 1,6 km/h (1 Bft)
09.03.2015 08:10 1,1 C 94 % 1027,9 hPa 0,0 l/m 0,0 km/h (0 Bft) N 5 0 min 0,000 mm 0,0 UV-I 53 W/m 0,2 C 1,1 C 0,0 km/h (0 Bft)
09.03.2015 08:15 1,3 C 94 % 1027,9 hPa 0,0 l/m 0,0 km/h (0 Bft) N 5 0 min 0,000 mm 0,0 UV-I 57 W/m 0,4 C 1,3 C 0,0 km/h (0 Bft)
09.03.2015 08:20 1,4 C 94 % 1027,9 hPa 0,0 l/m 0,0 km/h (0 Bft) N 5 0 min 0,000 mm 0,0 UV-I 70 W/m 0,5 C 1,4 C 0,0 km/h (0 Bft)
09.03.2015 08:25 1,6 C 94 % 1027,8 hPa 0,0 l/m 0,0 km/h (0 Bft) N 5 0 min 0,000 mm 0,0 UV-I 87 W/m 0,7 C 1,6 C 0,0 km/h (0 Bft)
09.03.2015 08:30 1,9 C 95 % 1027,8 hPa 0,0 l/m 0,0 km/h (0 Bft) N 5 0 min 0,000 mm 0,0 UV-I 113 W/m 1,2 C 1,9 C 0,0 km/h (0 Bft)
09.03.2015 08:35 2,5 C 95 % 1027,8 hPa 0,0 l/m 0,0 km/h (0 Bft) N 5 5 min 0,000 mm 0,5 UV-I 140 W/m 1,8 C 2,5 C 0,0 km/h (0 Bft)
09.03.2015 08:40 3,1 C 94 % 1027,7 hPa 0,0 l/m 0,0 km/h (0 Bft) N 5 5 min 0,000 mm 0,5 UV-I 177 W/m 2,2 C 3,1 C 1,6 km/h (1 Bft)
09.03.2015 08:45 3,7 C 93 % 1027,7 hPa 0,0 l/m 0,3 km/h (0 Bft) NO 42 5 min 0,000 mm 0,5 UV-I 207 W/m 2,7 C 3,7 C 3,2 km/h (1 Bft)
09.03.2015 08:50 4,2 C 91 % 1027,7 hPa 0,0 l/m 0,0 km/h (0 Bft) NO 42 5 min 0,000 mm 0,6 UV-I 232 W/m 2,9 C 4,2 C 0,0 km/h (0 Bft)
09.03.2015 08:55 4,7 C 89 % 1027,7 hPa 0,0 l/m 0,0 km/h (0 Bft) NO 42 5 min 0,000 mm 0,6 UV-I 239 W/m 3,0 C 4,7 C 0,0 km/h (0 Bft)
09.03.2015 09:00 5,0 C 87 % 1027,6 hPa 0,0 l/m 0,0 km/h (0 Bft) NO 42 5 min 0,000 mm 0,6 UV-I 242 W/m 3,0 C 5,0 C 1,6 km/h (1 Bft)
09.03.2015 09:05 5,3 C 87 % 1027,6 hPa 0,0 l/m 0,0 km/h (0 Bft) NO 42 5 min 0,051 mm 0,7 UV-I 231 W/m 3,3 C 5,3 C 0,0 km/h (0 Bft)
09.03.2015 09:10 5,3 C 85 % 1027,6 hPa 0,0 l/m 0,0 km/h (0 Bft) NO 42 0 min 0,000 mm 0,6 UV-I 101 W/m 3,0 C 5,3 C 0,0 km/h (0 Bft)
09.03.2015 09:15 4,9 C 85 % 1027,6 hPa 0,0 l/m 0,0 km/h (0 Bft) NO 42 0 min 0,000 mm 0,7 UV-I 118 W/m 2,6 C 4,9 C 0,0 km/h (0 Bft)
09.03.2015 09:20 5,0 C 86 % 1027,6 hPa 0,0 l/m 0,0 km/h (0 Bft) NO 42 0 min 0,000 mm 0,7 UV-I 166 W/m 2,9 C 5,0 C 0,0 km/h (0 Bft)
09.03.2015 09:25 5,1 C 86 % 1027,8 hPa 0,0 l/m 0,0 km/h (0 Bft) NO 42 0 min 0,000 mm 0,7 UV-I 157 W/m 3,0 C 5,1 C 0,0 km/h (0 Bft)
09.03.2015 09:30 5,2 C 86 % 1027,8 hPa 0,0 l/m 0,0 km/h (0 Bft) NO 42 0 min 0,000 mm 0,6 UV-I 163 W/m 3,1 C 5,2 C 0,0 km/h (0 Bft)
09.03.2015 09:35 5,3 C 86 % 1027,9 hPa 0,0 l/m 0,0 km/h (0 Bft) NO 42 0 min 0,000 mm 0,6 UV-I 150 W/m 3,2 C 5,3 C 1,6 km/h (1 Bft)
09.03.2015 09:40 5,3 C 87 % 1027,8 hPa 0,0 l/m 0,0 km/h (0 Bft) NO 42 0 min 0,000 mm 0,6 UV-I 150 W/m 3,3 C 5,3 C 0,0 km/h (0 Bft)
09.03.2015 09:45 5,7 C 89 % 1027,8 hPa 0,0 l/m 0,0 km/h (0 Bft) NO 42 0 min 0,000 mm 0,7 UV-I 172 W/m 4,0 C 5,7 C 0,0 km/h (0 Bft)
09.03.2015 09:50 6,0 C 88 % 1027,7 hPa 0,0 l/m 0,0 km/h (0 Bft) NO 42 0 min 0,000 mm 0,7 UV-I 182 W/m 4,2 C 6,0 C 1,6 km/h (1 Bft)
09.03.2015 09:55 6,4 C 88 % 1027,7 hPa 0,0 l/m 2,3 km/h (1 Bft) NO 52 0 min 0,000 mm 0,8 UV-I 180 W/m 4,6 C 6,4 C 6,4 km/h (2 Bft)
09.03.2015 10:00 6,9 C 89 % 1027,8 hPa 0,0 l/m 4,3 km/h (1 Bft) O-NO 65 0 min 0,076 mm 0,8 UV-I 172 W/m 5,2 C 6,9 C 12,9 km/h (3 Bft)
09.03.2015 10:05 7,6 C 87 % 1027,8 hPa 0,0 l/m 3,8 km/h (1 Bft) O-NO 63 0 min 0,000 mm 0,8 UV-I 207 W/m 5,6 C 7,6 C 11,3 km/h (2 Bft)
09.03.2015 10:10 8,2 C 86 % 1027,8 hPa 0,0 l/m 4,3 km/h (1 Bft) O-NO 57 0 min 0,000 mm 1,0 UV-I 215 W/m 6,0 C 8,2 C 12,9 km/h (3 Bft)
09.03.2015 10:15 8,7 C 85 % 1027,7 hPa 0,0 l/m 6,9 km/h (2 Bft) O-NO 65 0 min 0,000 mm 0,9 UV-I 192 W/m 6,3 C 8,3 C 14,5 km/h (3 Bft)
09.03.2015 10:20 8,9 C 84 % 1027,7 hPa 0,0 l/m 6,1 km/h (2 Bft) NO 40 0 min 0,000 mm 0,9 UV-I 201 W/m 6,3 C 8,9 C 14,5 km/h (3 Bft)
09.03.2015 10:25 9,1 C 83 % 1027,6 hPa 0,0 l/m 9,7 km/h (2 Bft) NO 56 0 min 0,000 mm 0,9 UV-I 192 W/m 6,4 C 6,8 C 17,7 km/h (3 Bft)
09.03.2015 10:30 9,2 C 82 % 1027,6 hPa 0,0 l/m 8,5 km/h (2 Bft) O-SO 107 0 min 0,000 mm 0,9 UV-I 170 W/m 6,3 C 7,7 C 17,7 km/h (3 Bft)
09.03.2015 10:35 9,2 C 82 % 1027,6 hPa 0,0 l/m 5,0 km/h (1 Bft) O-NO 59 0 min 0,000 mm 0,9 UV-I 166 W/m 6,3 C 9,2 C 16,1 km/h (3 Bft)
09.03.2015 10:40 9,2 C 82 % 1027,6 hPa 0,0 l/m 4,6 km/h (1 Bft) O-NO 69 0 min 0,000 mm 0,9 UV-I 197 W/m 6,3 C 9,2 C 11,3 km/h (2 Bft)
09.03.2015 10:45 9,3 C 82 % 1027,6 hPa 0,0 l/m 5,6 km/h (1 Bft) NO 39 0 min 0,000 mm 1,0 UV-I 231 W/m 6,4 C 9,3 C 14,5 km/h (3 Bft)
09.03.2015 10:50 9,4 C 82 % 1027,7 hPa 0,0 l/m 6,6 km/h (2 Bft) O 93 5 min 0,000 mm 1,1 UV-I 281 W/m 6,5 C 9,3 C 12,9 km/h (3 Bft)
09.03.2015 10:55 9,5 C 81 % 1027,7 hPa 0,0 l/m 8,0 km/h (2 Bft) O 79 5 min 0,000 mm 1,2 UV-I 299 W/m 6,4 C 8,3 C 14,5 km/h (3 Bft)
09.03.2015 11:00 9,7 C 81 % 1027,7 hPa 0,0 l/m 8,7 km/h (2 Bft) NO 53 5 min 0,000 mm 1,3 UV-I 351 W/m 6,6 C 8,1 C 16,1 km/h (3 Bft)
09.03.2015 11:05 9,7 C 80 % 1027,7 hPa 0,0 l/m 5,5 km/h (1 Bft) NO 49 5 min 0,102 mm 1,2 UV-I 322 W/m 6,4 C 9,7 C 12,9 km/h (3 Bft)
09.03.2015 11:10 9,7 C 80 % 1027,7 hPa 0,0 l/m 4,7 km/h (1 Bft) O 88 5 min 0,000 mm 1,2 UV-I 296 W/m 6,4 C 9,7 C 9,7 km/h (2 Bft)
09.03.2015 11:15 9,8 C 80 % 1027,7 hPa 0,0 l/m 5,9 km/h (2 Bft) O 84 5 min 0,000 mm 1,4 UV-I 335 W/m 6,5 C 9,8 C 11,3 km/h (2 Bft)
09.03.2015 11:20 10,6 C 78 % 1027,6 hPa 0,0 l/m 3,9 km/h (1 Bft) O-SO 107 5 min 0,000 mm 1,6 UV-I 366 W/m 6,9 C 10,6 C 11,3 km/h (2 Bft)
09.03.2015 11:25 10,1 C 78 % 1027,5 hPa 0,0 l/m 9,4 km/h (2 Bft) O-NO 75 5 min 0,000 mm 1,6 UV-I 309 W/m 6,4 C 8,1 C 16,1 km/h (3 Bft)
09.03.2015 11:30 10,1 C 79 % 1027,4 hPa 0,0 l/m 9,8 km/h (2 Bft) O-SO 118 5 min 0,000 mm 2,1 UV-I 647 W/m 6,6 C 7,8 C 19,3 km/h (3 Bft)
09.03.2015 11:35 10,3 C 78 % 1027,4 hPa 0,0 l/m 10,7 km/h (2 Bft) O-NO 68 5 min 0,000 mm 2,1 UV-I 712 W/m 6,6 C 7,5 C 17,7 km/h (3 Bft)
09.03.2015 11:40 10,7 C 78 % 1027,4 hPa 0,0 l/m 5,7 km/h (1 Bft) O-NO 73 5 min 0,000 mm 1,7 UV-I 337 W/m 7,0 C 10,7 C 12,9 km/h (3 Bft)
09.03.2015 11:45 11,1 C 75 % 1027,4 hPa 0,0 l/m 6,3 km/h (2 Bft) O-SO 113 5 min 0,000 mm 2,2 UV-I 511 W/m 6,8 C 11,1 C 16,1 km/h (3 Bft)
09.03.2015 11:50 11,1 C 74 % 1027,4 hPa 0,0 l/m 9,8 km/h (2 Bft) O-NO 63 5 min 0,000 mm 2,0 UV-I 763 W/m 6,6 C 8,9 C 20,9 km/h (4 Bft)
09.03.2015 11:55 11,2 C 74 % 1027,4 hPa 0,0 l/m 8,4 km/h (2 Bft) O 97 5 min 0,000 mm 1,5 UV-I 321 W/m 6,7 C 9,9 C 16,1 km/h (3 Bft)
09.03.2015 12:00 11,3 C 74 % 1027,5 hPa 0,0 l/m 7,0 km/h (2 Bft) O 96 0 min 0,000 mm 1,4 UV-I 273 W/m 6,8 C 10,9 C 12,9 km/h (3 Bft)
09.03.2015 12:05 11,1 C 74 % 1027,4 hPa 0,0 l/m 7,7 km/h (2 Bft) NO 47 0 min 0,203 mm 1,3 UV-I 253 W/m 6,6 C 10,2 C 16,1 km/h (3 Bft)
09.03.2015 12:10 11,2 C 73 % 1027,5 hPa 0,0 l/m 7,3 km/h (2 Bft) O 94 0 min 0,000 mm 1,3 UV-I 233 W/m 6,5 C 10,6 C 17,7 km/h (3 Bft)
09.03.2015 12:15 11,0 C 71 % 1027,5 hPa 0,0 l/m 8,3 km/h (2 Bft) N 9 0 min 0,000 mm 1,3 UV-I 228 W/m 5,9 C 9,7 C 17,7 km/h (3 Bft)
09.03.2015 12:20 10,8 C 72 % 1027,5 hPa 0,0 l/m 9,1 km/h (2 Bft) NO 44 0 min 0,000 mm 1,2 UV-I 204 W/m 6,0 C 9,0 C 16,1 km/h (3 Bft)
09.03.2015 12:25 10,8 C 73 % 1027,4 hPa 0,0 l/m 6,5 km/h (2 Bft) O 91 0 min 0,000 mm 1,3 UV-I 243 W/m 6,2 C 10,8 C 12,9 km/h (3 Bft)
09.03.2015 12:30 11,3 C 71 % 1027,4 hPa 0,0 l/m 7,1 km/h (2 Bft) O-NO 65 0 min 0,000 mm 1,3 UV-I 263 W/m 6,2 C 10,8 C 17,7 km/h (3 Bft)
09.03.2015 12:35 11,8 C 72 % 1027,3 hPa 0,0 l/m 5,0 km/h (1 Bft) O-NO 59 0 min 0,000 mm 1,4 UV-I 299 W/m 6,9 C 11,8 C 14,5 km/h (3 Bft)
09.03.2015 12:40 12,2 C 68 % 1027,3 hPa 0,0 l/m 4,5 km/h (1 Bft) O 86 5 min 0,000 mm 1,4 UV-I 337 W/m 6,5 C 12,2 C 11,3 km/h (2 Bft)
09.03.2015 12:45 11,8 C 68 % 1027,3 hPa 0,0 l/m 7,3 km/h (2 Bft) O 88 5 min 0,000 mm 1,8 UV-I 434 W/m 6,1 C 11,2 C 17,7 km/h (3 Bft)
09.03.2015 12:50 12,1 C 68 % 1027,2 hPa 0,0 l/m 7,8 km/h (2 Bft) NO 55 5 min 0,000 mm 2,1 UV-I 406 W/m 6,4 C 11,2 C 14,5 km/h (3 Bft)
09.03.2015 12:55 12,1 C 67 % 1027,2 hPa 0,0 l/m 5,5 km/h (1 Bft) NO 47 5 min 0,000 mm 2,0 UV-I 377 W/m 6,2 C 12,1 C 11,3 km/h (2 Bft)
09.03.2015 13:00 12,2 C 66 % 1027,1 hPa 0,0 l/m 2,8 km/h (1 Bft) O-NO 71 5 min 0,000 mm 1,9 UV-I 319 W/m 6,0 C 12,2 C 9,7 km/h (2 Bft)
09.03.2015 13:05 12,1 C 67 % 1027,0 hPa 0,0 l/m 5,5 km/h (1 Bft) O 91 0 min 0,178 mm 1,6 UV-I 270 W/m 6,2 C 12,1 C 11,3 km/h (2 Bft)
09.03.2015 13:10 12,6 C 66 % 1027,0 hPa 0,0 l/m 5,4 km/h (1 Bft) NO 42 5 min 0,000 mm 2,1 UV-I 387 W/m 6,4 C 12,6 C 12,9 km/h (3 Bft)
09.03.2015 13:15 12,9 C 66 % 1026,8 hPa 0,0 l/m 2,2 km/h (1 Bft) NO 46 5 min 0,000 mm 2,2 UV-I 550 W/m 6,7 C 12,9 C 11,3 km/h (2 Bft)
09.03.2015 13:20 13,2 C 63 % 1026,8 hPa 0,0 l/m 2,2 km/h (1 Bft) NO 53 5 min 0,000 mm 2,0 UV-I 555 W/m 6,3 C 13,2 C 9,7 km/h (2 Bft)
09.03.2015 13:25 13,9 C 62 % 1026,7 hPa 0,0 l/m 1,0 km/h (0 Bft) S-SO 150 5 min 0,000 mm 1,9 UV-I 662 W/m 6,7 C 13,9 C 6,4 km/h (2 Bft)
09.03.2015 13:30 13,4 C 63 % 1026,6 hPa 0,0 l/m 2,3 km/h (1 Bft) NO 53 0 min 0,000 mm 1,9 UV-I 303 W/m 6,5 C 13,4 C 8,0 km/h (2 Bft)
09.03.2015 13:35 13,2 C 65 % 1026,6 hPa 0,0 l/m 0,0 km/h (0 Bft) O-NO 57 5 min 0,000 mm 2,0 UV-I 550 W/m 6,8 C 13,2 C 1,6 km/h (1 Bft)
09.03.2015 13:40 14,2 C 63 % 1026,6 hPa 0,0 l/m 0,4 km/h (0 Bft) N 355 5 min 0,000 mm 1,7 UV-I 347 W/m 7,3 C 14,2 C 4,8 km/h (1 Bft)
09.03.2015 13:45 13,9 C 60 % 1026,5 hPa 0,0 l/m 0,9 km/h (0 Bft) O-SO 110 5 min 0,000 mm 2,0 UV-I 360 W/m 6,3 C 13,9 C 4,8 km/h (1 Bft)
09.03.2015 13:50 13,9 C 61 % 1026,4 hPa 0,0 l/m 4,1 km/h (1 Bft) O-NO 65 5 min 0,000 mm 2,0 UV-I 645 W/m 6,5 C 13,9 C 12,9 km/h (3 Bft)
09.03.2015 13:55 13,8 C 62 % 1026,3 hPa 0,0 l/m 3,4 km/h (1 Bft) O-NO 70 5 min 0,000 mm 1,9 UV-I 470 W/m 6,6 C 13,8 C 12,9 km/h (3 Bft)
09.03.2015 14:00 14,1 C 61 % 1026,3 hPa 0,0 l/m 3,6 km/h (1 Bft) SO 137 5 min 0,000 mm 1,9 UV-I 572 W/m 6,7 C 14,1 C 11,3 km/h (2 Bft)
09.03.2015 14:05 14,3 C 61 % 1026,3 hPa 0,0 l/m 1,5 km/h (1 Bft) NO 50 5 min 0,229 mm 1,7 UV-I 484 W/m 6,9 C 14,3 C 9,7 km/h (2 Bft)
09.03.2015 14:10 14,7 C 63 % 1026,2 hPa 0,0 l/m 2,0 km/h (1 Bft) NO 42 5 min 0,000 mm 1,8 UV-I 405 W/m 7,7 C 14,7 C 9,7 km/h (2 Bft)
09.03.2015 14:15 15,3 C 58 % 1026,2 hPa 0,0 l/m 4,1 km/h (1 Bft) NO 51 5 min 0,000 mm 1,9 UV-I 570 W/m 7,1 C 15,3 C 12,9 km/h (3 Bft)
09.03.2015 14:20 15,1 C 59 % 1026,1 hPa 0,0 l/m 1,4 km/h (1 Bft) O 94 5 min 0,000 mm 1,8 UV-I 580 W/m 7,1 C 15,1 C 11,3 km/h (2 Bft)
09.03.2015 14:25 15,4 C 58 % 1026,1 hPa 0,0 l/m 4,5 km/h (1 Bft) O-NO 62 5 min 0,000 mm 1,8 UV-I 567 W/m 7,2 C 15,4 C 12,9 km/h (3 Bft)
09.03.2015 14:30 15,8 C 58 % 1026,1 hPa 0,0 l/m 1,4 km/h (1 Bft) NO 45 5 min 0,000 mm 1,7 UV-I 527 W/m 7,6 C 15,8 C 8,0 km/h (2 Bft)
09.03.2015 14:35 15,8 C 59 % 1026,1 hPa 0,0 l/m 1,5 km/h (1 Bft) O-NO 75 5 min 0,000 mm 1,7 UV-I 547 W/m 7,8 C 15,8 C 8,0 km/h (2 Bft)
09.03.2015 14:40 16,3 C 55 % 1026,0 hPa 0,0 l/m 2,3 km/h (1 Bft) NO 51 5 min 0,000 mm 1,6 UV-I 517 W/m 7,2 C 16,3 C 11,3 km/h (2 Bft)
09.03.2015 14:45 14,8 C 57 % 1026,0 hPa 0,0 l/m 2,7 km/h (1 Bft) O-NO 65 5 min 0,000 mm 1,4 UV-I 375 W/m 6,4 C 14,8 C 8,0 km/h (2 Bft)
09.03.2015 14:50 15,2 C 56 % 1025,9 hPa 0,0 l/m 0,4 km/h (0 Bft) O-SO 109 5 min 0,000 mm 1,5 UV-I 509 W/m 6,5 C 15,2 C 4,8 km/h (1 Bft)
09.03.2015 14:55 15,2 C 58 % 1025,9 hPa 0,0 l/m 0,1 km/h (0 Bft) O-SO 106 5 min 0,000 mm 1,4 UV-I 454 W/m 7,0 C 15,2 C 3,2 km/h (1 Bft)
09.03.2015 15:00 16,1 C 54 % 1025,9 hPa 0,0 l/m 0,3 km/h (0 Bft) S-SO 155 5 min 0,000 mm 1,4 UV-I 485 W/m 6,8 C 16,1 C 4,8 km/h (1 Bft)
09.03.2015 15:05 15,1 C 57 % 1025,8 hPa 0,0 l/m 0,4 km/h (0 Bft) SW 220 5 min 0,279 mm 1,4 UV-I 482 W/m 6,6 C 15,1 C 3,2 km/h (1 Bft)
09.03.2015 15:10 15,2 C 56 % 1025,8 hPa 0,0 l/m 0,1 km/h (0 Bft) SW 225 5 min 0,000 mm 1,3 UV-I 471 W/m 6,5 C 15,2 C 1,6 km/h (1 Bft)
09.03.2015 15:15 16,0 C 57 % 1025,8 hPa 0,0 l/m 1,4 km/h (1 Bft) NW 306 5 min 0,000 mm 1,3 UV-I 461 W/m 7,5 C 16,0 C 6,4 km/h (2 Bft)
09.03.2015 15:20 16,2 C 54 % 1025,8 hPa 0,0 l/m 0,1 km/h (0 Bft) NW 306 5 min 0,000 mm 1,2 UV-I 449 W/m 6,9 C 16,2 C 3,2 km/h (1 Bft)
09.03.2015 15:25 15,7 C 54 % 1025,8 hPa 0,0 l/m 0,3 km/h (0 Bft) SO 144 5 min 0,000 mm 1,2 UV-I 438 W/m 6,4 C 15,7 C 3,2 km/h (1 Bft)
09.03.2015 15:30 15,6 C 57 % 1025,8 hPa 0,0 l/m 0,5 km/h (0 Bft) O 99 5 min 0,000 mm 1,1 UV-I 424 W/m 7,1 C 15,6 C 3,2 km/h (1 Bft)
09.03.2015 15:35 16,3 C 54 % 1025,7 hPa 0,0 l/m 0,6 km/h (0 Bft) S-SW 193 5 min 0,000 mm 1,1 UV-I 415 W/m 7,0 C 16,3 C 4,8 km/h (1 Bft)
09.03.2015 15:40 16,1 C 54 % 1025,7 hPa 0,0 l/m 1,2 km/h (1 Bft) S 188 5 min 0,000 mm 1,0 UV-I 405 W/m 6,8 C 16,1 C 4,8 km/h (1 Bft)
09.03.2015 15:45 16,1 C 55 % 1025,7 hPa 0,0 l/m 0,8 km/h (0 Bft) W-NW 287 5 min 0,000 mm 1,0 UV-I 393 W/m 7,1 C 16,1 C 4,8 km/h (1 Bft)
09.03.2015 15:50 16,3 C 53 % 1025,8 hPa 0,0 l/m 1,1 km/h (1 Bft) SW 230 5 min 0,000 mm 0,9 UV-I 378 W/m 6,7 C 16,3 C 6,4 km/h (2 Bft)
09.03.2015 15:55 15,4 C 54 % 1025,7 hPa 0,0 l/m 1,9 km/h (1 Bft) S 172 5 min 0,000 mm 0,8 UV-I 357 W/m 6,1 C 15,4 C 8,0 km/h (2 Bft)
09.03.2015 16:00 15,9 C 53 % 1025,7 hPa 0,0 l/m 1,2 km/h (1 Bft) SW 221 5 min 0,000 mm 0,8 UV-I 354 W/m 6,3 C 15,9 C 6,4 km/h (2 Bft)
09.03.2015 16:05 15,2 C 55 % 1025,6 hPa 0,0 l/m 0,3 km/h (0 Bft) S-SW 211 5 min 0,229 mm 0,8 UV-I 343 W/m 6,2 C 15,2 C 6,4 km/h (2 Bft)
09.03.2015 16:10 15,9 C 55 % 1025,7 hPa 0,0 l/m 1,4 km/h (1 Bft) SW 229 5 min 0,000 mm 0,7 UV-I 330 W/m 6,9 C 15,9 C 6,4 km/h (2 Bft)
09.03.2015 16:15 15,9 C 53 % 1025,6 hPa 0,0 l/m 2,6 km/h (1 Bft) W 266 5 min 0,000 mm 0,7 UV-I 312 W/m 6,3 C 15,9 C 8,0 km/h (2 Bft)
09.03.2015 16:20 15,7 C 55 % 1025,7 hPa 0,0 l/m 2,2 km/h (1 Bft) SW 232 5 min 0,000 mm 0,6 UV-I 301 W/m 6,7 C 15,7 C 8,0 km/h (2 Bft)
09.03.2015 16:25 15,1 C 55 % 1025,7 hPa 0,0 l/m 4,5 km/h (1 Bft) W-SW 258 5 min 0,000 mm 0,6 UV-I 285 W/m 6,1 C 15,1 C 9,7 km/h (2 Bft)
09.03.2015 16:30 15,0 C 55 % 1025,7 hPa 0,0 l/m 4,6 km/h (1 Bft) W 266 5 min 0,000 mm 0,5 UV-I 266 W/m 6,0 C 15,0 C 9,7 km/h (2 Bft)
09.03.2015 16:35 15,0 C 56 % 1025,7 hPa 0,0 l/m 2,1 km/h (1 Bft) SW 236 5 min 0,000 mm 0,5 UV-I 246 W/m 6,3 C 15,0 C 6,4 km/h (2 Bft)
09.03.2015 16:40 15,0 C 56 % 1025,7 hPa 0,0 l/m 4,1 km/h (1 Bft) W 271 5 min 0,000 mm 0,5 UV-I 243 W/m 6,3 C 15,0 C 9,7 km/h (2 Bft)
09.03.2015 16:45 15,2 C 56 % 1025,7 hPa 0,0 l/m 0,8 km/h (0 Bft) W 261 5 min 0,000 mm 0,2 UV-I 227 W/m 6,5 C 15,2 C 8,0 km/h (2 Bft)
09.03.2015 16:50 15,0 C 55 % 1025,7 hPa 0,0 l/m 4,1 km/h (1 Bft) W 272 5 min 0,000 mm 0,0 UV-I 205 W/m 6,0 C 15,0 C 9,7 km/h (2 Bft)
09.03.2015 16:55 14,9 C 56 % 1025,6 hPa 0,0 l/m 3,1 km/h (1 Bft) W-NW 295 5 min 0,000 mm 0,0 UV-I 200 W/m 6,2 C 14,9 C 9,7 km/h (2 Bft)
09.03.2015 17:00 15,1 C 56 % 1025,5 hPa 0,0 l/m 0,8 km/h (0 Bft) SW 225 5 min 0,000 mm 0,0 UV-I 158 W/m 6,4 C 15,1 C 6,4 km/h (2 Bft)
09.03.2015 17:05 14,9 C 56 % 1025,6 hPa 0,0 l/m 1,1 km/h (1 Bft) W-NW 290 5 min 0,152 mm 0,0 UV-I 120 W/m 6,2 C 14,9 C 6,4 km/h (2 Bft)
09.03.2015 17:10 14,7 C 56 % 1025,5 hPa 0,0 l/m 3,2 km/h (1 Bft) W-NW 303 5 min 0,000 mm 0,0 UV-I 104 W/m 6,0 C 14,7 C 8,0 km/h (2 Bft)
09.03.2015 17:15 14,6 C 57 % 1025,5 hPa 0,0 l/m 0,8 km/h (0 Bft) W-NW 299 0 min 0,000 mm 0,0 UV-I 88 W/m 6,2 C 14,6 C 8,0 km/h (2 Bft)
09.03.2015 17:20 14,6 C 57 % 1025,5 hPa 0,0 l/m 0,0 km/h (0 Bft) W-NW 299 0 min 0,000 mm 0,0 UV-I 67 W/m 6,2 C 14,6 C 1,6 km/h (1 Bft)
09.03.2015 17:25 14,4 C 57 % 1025,5 hPa 0,0 l/m 1,8 km/h (1 Bft) W-NW 293 0 min 0,000 mm 0,0 UV-I 61 W/m 6,0 C 14,4 C 6,4 km/h (2 Bft)
09.03.2015 17:30 14,2 C 58 % 1025,4 hPa 0,0 l/m 0,2 km/h (0 Bft) W-NW 293 0 min 0,000 mm 0,0 UV-I 54 W/m 6,1 C 14,2 C 4,8 km/h (1 Bft)
09.03.2015 17:35 14,1 C 59 % 1025,4 hPa 0,0 l/m 0,0 km/h (0 Bft) W-NW 293 0 min 0,000 mm 0,0 UV-I 48 W/m 6,2 C 14,1 C 0,0 km/h (0 Bft)
09.03.2015 17:40 14,0 C 60 % 1025,5 hPa 0,0 l/m 0,0 km/h (0 Bft) W-NW 293 0 min 0,000 mm 0,0 UV-I 37 W/m 6,4 C 14,0 C 0,0 km/h (0 Bft)
09.03.2015 17:45 14,0 C 60 % 1025,5 hPa 0,0 l/m 0,0 km/h (0 Bft) W-NW 293 0 min 0,000 mm 0,0 UV-I 33 W/m 6,4 C 14,0 C 0,0 km/h (0 Bft)
09.03.2015 17:50 13,9 C 59 % 1025,5 hPa 0,0 l/m 0,0 km/h (0 Bft) W-NW 293 0 min 0,000 mm 0,0 UV-I 31 W/m 6,0 C 13,9 C 0,0 km/h (0 Bft)
09.03.2015 17:55 13,8 C 61 % 1025,5 hPa 0,0 l/m 0,0 km/h (0 Bft) W-NW 293 0 min 0,000 mm 0,0 UV-I 25 W/m 6,4 C 13,8 C 0,0 km/h (0 Bft)
09.03.2015 18:00 13,6 C 61 % 1025,4 hPa 0,0 l/m 0,0 km/h (0 Bft) W-NW 293 0 min 0,000 mm 0,0 UV-I 21 W/m 6,2 C 13,6 C 0,0 km/h (0 Bft)
09.03.2015 18:05 13,4 C 62 % 1025,5 hPa 0,0 l/m 0,0 km/h (0 Bft) W-NW 293 5 min 0,051 mm 0,0 UV-I 16 W/m 6,3 C 13,4 C 0,0 km/h (0 Bft)
09.03.2015 18:10 13,2 C 62 % 1025,4 hPa 0,0 l/m 0,0 km/h (0 Bft) W-NW 293 0 min 0,000 mm 0,0 UV-I 12 W/m 6,1 C 13,2 C 0,0 km/h (0 Bft)
09.03.2015 18:15 12,8 C 63 % 1025,5 hPa 0,0 l/m 0,0 km/h (0 Bft) W-NW 293 0 min 0,000 mm 0,0 UV-I 7 W/m 5,9 C 12,8 C 0,0 km/h (0 Bft)
09.03.2015 18:20 12,2 C 64 % 1025,5 hPa 0,0 l/m 0,0 km/h (0 Bft) W-NW 287 0 min 0,000 mm 0,0 UV-I 2 W/m 5,6 C 12,2 C 1,6 km/h (1 Bft)
09.03.2015 18:25 11,4 C 66 % 1025,5 hPa 0,0 l/m 1,6 km/h (1 Bft) NO 46 0 min 0,000 mm 0,0 UV-I 0 W/m 5,3 C 11,4 C 4,8 km/h (1 Bft)
09.03.2015 18:30 11,1 C 68 % 1025,5 hPa 0,0 l/m 0,0 km/h (0 Bft) NO 46 0 min 0,000 mm 0,0 UV-I 0 W/m 5,4 C 11,1 C 0,0 km/h (0 Bft)
09.03.2015 18:35 10,8 C 69 % 1025,5 hPa 0,0 l/m 0,0 km/h (0 Bft) NO 46 0 min 0,000 mm 0,0 UV-I 0 W/m 5,3 C 10,8 C 0,0 km/h (0 Bft)
09.03.2015 18:40 10,7 C 69 % 1025,5 hPa 0,0 l/m 0,0 km/h (0 Bft) NO 46 0 min 0,000 mm 0,0 UV-I 0 W/m 5,2 C 10,7 C 0,0 km/h (0 Bft)
09.03.2015 18:45 10,6 C 69 % 1025,6 hPa 0,0 l/m 0,0 km/h (0 Bft) NO 46 0 min 0,000 mm 0,0 UV-I 0 W/m 5,2 C 10,6 C 0,0 km/h (0 Bft)
09.03.2015 18:50 10,4 C 69 % 1025,6 hPa 0,0 l/m 0,0 km/h (0 Bft) NO 46 0 min 0,000 mm 0,0 UV-I 0 W/m 5,0 C 10,4 C 0,0 km/h (0 Bft)
09.03.2015 18:55 10,2 C 70 % 1025,7 hPa 0,0 l/m 0,0 km/h (0 Bft) NO 46 0 min 0,000 mm 0,0 UV-I 0 W/m 5,0 C 10,2 C 0,0 km/h (0 Bft)
09.03.2015 19:00 10,1 C 71 % 1025,8 hPa 0,0 l/m 0,0 km/h (0 Bft) NO 46 0 min 0,000 mm 0,0 UV-I 0 W/m 5,1 C 10,1 C 0,0 km/h (0 Bft)
09.03.2015 19:05 9,8 C 72 % 1025,8 hPa 0,0 l/m 0,0 km/h (0 Bft) NO 46 0 min 0,000 mm 0,0 UV-I 0 W/m 5,0 C 9,8 C 0,0 km/h (0 Bft)
09.03.2015 19:10 9,6 C 72 % 1025,8 hPa 0,0 l/m 0,0 km/h (0 Bft) NO 46 0 min 0,000 mm 0,0 UV-I 0 W/m 4,8 C 9,6 C 0,0 km/h (0 Bft)
09.03.2015 19:15 9,4 C 73 % 1025,9 hPa 0,0 l/m 0,0 km/h (0 Bft) NO 46 0 min 0,000 mm 0,0 UV-I 0 W/m 4,8 C 9,4 C 0,0 km/h (0 Bft)
09.03.2015 19:20 9,2 C 73 % 1025,9 hPa 0,0 l/m 0,0 km/h (0 Bft) NO 46 0 min 0,000 mm 0,0 UV-I 0 W/m 4,6 C 9,2 C 0,0 km/h (0 Bft)
09.03.2015 19:25 8,9 C 75 % 1025,7 hPa 0,0 l/m 0,0 km/h (0 Bft) NO 46 0 min 0,000 mm 0,0 UV-I 0 W/m 4,7 C 8,9 C 0,0 km/h (0 Bft)
09.03.2015 19:30 8,6 C 76 % 1025,7 hPa 0,0 l/m 0,0 km/h (0 Bft) NO 46 0 min 0,000 mm 0,0 UV-I 0 W/m 4,6 C 8,6 C 0,0 km/h (0 Bft)
09.03.2015 19:35 8,4 C 77 % 1025,7 hPa 0,0 l/m 0,0 km/h (0 Bft) NO 46 0 min 0,000 mm 0,0 UV-I 0 W/m 4,6 C 8,4 C 0,0 km/h (0 Bft)
09.03.2015 19:40 8,2 C 77 % 1025,6 hPa 0,0 l/m 0,0 km/h (0 Bft) NO 46 0 min 0,000 mm 0,0 UV-I 0 W/m 4,4 C 8,2 C 0,0 km/h (0 Bft)
09.03.2015 19:45 8,1 C 77 % 1025,6 hPa 0,0 l/m 0,0 km/h (0 Bft) NO 46 0 min 0,000 mm 0,0 UV-I 0 W/m 4,3 C 8,1 C 0,0 km/h (0 Bft)
09.03.2015 19:50 7,9 C 78 % 1025,6 hPa 0,0 l/m 0,0 km/h (0 Bft) NO 46 0 min 0,000 mm 0,0 UV-I 0 W/m 4,3 C 7,9 C 0,0 km/h (0 Bft)
09.03.2015 19:55 7,8 C 79 % 1025,6 hPa 0,0 l/m 0,0 km/h (0 Bft) NO 46 0 min 0,000 mm 0,0 UV-I 0 W/m 4,4 C 7,8 C 0,0 km/h (0 Bft)
09.03.2015 20:00 7,6 C 79 % 1025,7 hPa 0,0 l/m 0,0 km/h (0 Bft) NO 46 0 min 0,000 mm 0,0 UV-I 0 W/m 4,2 C 7,6 C 0,0 km/h (0 Bft)
09.03.2015 20:05 7,3 C 79 % 1025,7 hPa 0,0 l/m 0,0 km/h (0 Bft) NO 46 0 min 0,025 mm 0,0 UV-I 0 W/m 3,9 C 7,3 C 0,0 km/h (0 Bft)
09.03.2015 20:10 6,8 C 81 % 1025,7 hPa 0,0 l/m 0,0 km/h (0 Bft) NO 46 0 min 0,000 mm 0,0 UV-I 0 W/m 3,8 C 6,8 C 0,0 km/h (0 Bft)
09.03.2015 20:15 6,7 C 82 % 1025,8 hPa 0,0 l/m 0,0 km/h (0 Bft) NO 46 0 min 0,000 mm 0,0 UV-I 0 W/m 3,8 C 6,7 C 0,0 km/h (0 Bft)
09.03.2015 20:20 6,6 C 83 % 1025,8 hPa 0,0 l/m 0,0 km/h (0 Bft) NO 46 0 min 0,000 mm 0,0 UV-I 0 W/m 3,9 C 6,6 C 0,0 km/h (0 Bft)
09.03.2015 20:25 6,4 C 82 % 1025,8 hPa 0,0 l/m 0,0 km/h (0 Bft) NO 46 0 min 0,000 mm 0,0 UV-I 0 W/m 3,6 C 6,4 C 0,0 km/h (0 Bft)
09.03.2015 20:30 6,3 C 82 % 1025,8 hPa 0,0 l/m 0,0 km/h (0 Bft) NO 46 0 min 0,000 mm 0,0 UV-I 0 W/m 3,5 C 6,3 C 0,0 km/h (0 Bft)
09.03.2015 20:35 6,2 C 83 % 1025,9 hPa 0,0 l/m 0,0 km/h (0 Bft) NO 46 0 min 0,000 mm 0,0 UV-I 0 W/m 3,5 C 6,2 C 0,0 km/h (0 Bft)
09.03.2015 20:40 6,1 C 84 % 1025,9 hPa 0,0 l/m 0,0 km/h (0 Bft) NO 46 0 min 0,000 mm 0,0 UV-I 0 W/m 3,6 C 6,1 C 0,0 km/h (0 Bft)
09.03.2015 20:45 6,1 C 83 % 1025,9 hPa 0,0 l/m 0,0 km/h (0 Bft) NO 46 0 min 0,000 mm 0,0 UV-I 0 W/m 3,4 C 6,1 C 0,0 km/h (0 Bft)
09.03.2015 20:50 6,0 C 84 % 1025,9 hPa 0,0 l/m 0,0 km/h (0 Bft) NO 46 0 min 0,000 mm 0,0 UV-I 0 W/m 3,5 C 6,0 C 0,0 km/h (0 Bft)
09.03.2015 20:55 5,9 C 84 % 1025,9 hPa 0,0 l/m 0,0 km/h (0 Bft) NO 46 0 min 0,000 mm 0,0 UV-I 0 W/m 3,4 C 5,9 C 0,0 km/h (0 Bft)
09.03.2015 21:00 5,8 C 84 % 1025,8 hPa 0,0 l/m 0,0 km/h (0 Bft) NO 46 0 min 0,000 mm 0,0 UV-I 0 W/m 3,3 C 5,8 C 0,0 km/h (0 Bft)
09.03.2015 21:05 5,7 C 84 % 1025,8 hPa 0,0 l/m 0,0 km/h (0 Bft) NO 46 0 min 0,000 mm 0,0 UV-I 0 W/m 3,2 C 5,7 C 0,0 km/h (0 Bft)
09.03.2015 21:10 5,6 C 84 % 1025,8 hPa 0,0 l/m 0,0 km/h (0 Bft) NO 46 0 min 0,000 mm 0,0 UV-I 0 W/m 3,1 C 5,6 C 0,0 km/h (0 Bft)
09.03.2015 21:15 5,3 C 84 % 1025,8 hPa 0,0 l/m 0,0 km/h (0 Bft) NO 46 0 min 0,000 mm 0,0 UV-I 0 W/m 2,8 C 5,3 C 0,0 km/h (0 Bft)
09.03.2015 21:20 5,3 C 85 % 1025,8 hPa 0,0 l/m 0,0 km/h (0 Bft) NO 46 0 min 0,000 mm 0,0 UV-I 0 W/m 3,0 C 5,3 C 0,0 km/h (0 Bft)
09.03.2015 21:25 5,1 C 85 % 1025,8 hPa 0,0 l/m 0,0 km/h (0 Bft) NO 46 0 min 0,000 mm 0,0 UV-I 0 W/m 2,8 C 5,1 C 0,0 km/h (0 Bft)
09.03.2015 21:30 4,9 C 86 % 1025,9 hPa 0,0 l/m 0,0 km/h (0 Bft) NO 46 0 min 0,000 mm 0,0 UV-I 0 W/m 2,8 C 4,9 C 0,0 km/h (0 Bft)
09.03.2015 21:35 4,8 C 86 % 1025,8 hPa 0,0 l/m 0,0 km/h (0 Bft) NO 46 0 min 0,000 mm 0,0 UV-I 0 W/m 2,7 C 4,8 C 0,0 km/h (0 Bft)
09.03.2015 21:40 4,7 C 86 % 1025,8 hPa 0,0 l/m 0,0 km/h (0 Bft) NO 46 0 min 0,000 mm 0,0 UV-I 0 W/m 2,6 C 4,7 C 0,0 km/h (0 Bft)
09.03.2015 21:45 4,7 C 86 % 1025,7 hPa 0,0 l/m 0,0 km/h (0 Bft) NO 46 0 min 0,000 mm 0,0 UV-I 0 W/m 2,6 C 4,7 C 0,0 km/h (0 Bft)
09.03.2015 21:50 4,6 C 86 % 1025,7 hPa 0,0 l/m 0,0 km/h (0 Bft) NO 46 0 min 0,000 mm 0,0 UV-I 0 W/m 2,5 C 4,6 C 0,0 km/h (0 Bft)
09.03.2015 21:55 4,5 C 87 % 1025,7 hPa 0,0 l/m 0,0 km/h (0 Bft) NO 46 0 min 0,000 mm 0,0 UV-I 0 W/m 2,5 C 4,5 C 0,0 km/h (0 Bft)
09.03.2015 22:00 4,4 C 87 % 1025,7 hPa 0,0 l/m 0,0 km/h (0 Bft) NO 46 0 min 0,000 mm 0,0 UV-I 0 W/m 2,4 C 4,4 C 0,0 km/h (0 Bft)
09.03.2015 22:05 4,2 C 87 % 1025,6 hPa 0,0 l/m 0,0 km/h (0 Bft) NO 46 0 min 0,000 mm 0,0 UV-I 0 W/m 2,2 C 4,2 C 0,0 km/h (0 Bft)
09.03.2015 22:10 4,2 C 87 % 1025,6 hPa 0,0 l/m 0,0 km/h (0 Bft) NO 46 0 min 0,000 mm 0,0 UV-I 0 W/m 2,2 C 4,2 C 0,0 km/h (0 Bft)
09.03.2015 22:15 4,1 C 87 % 1025,5 hPa 0,0 l/m 0,0 km/h (0 Bft) NO 46 0 min 0,000 mm 0,0 UV-I 0 W/m 2,1 C 4,1 C 0,0 km/h (0 Bft)
09.03.2015 22:20 4,0 C 87 % 1025,6 hPa 0,0 l/m 0,0 km/h (0 Bft) NO 46 0 min 0,000 mm 0,0 UV-I 0 W/m 2,0 C 4,0 C 0,0 km/h (0 Bft)
09.03.2015 22:25 3,9 C 88 % 1025,6 hPa 0,0 l/m 0,0 km/h (0 Bft) NO 46 0 min 0,000 mm 0,0 UV-I 0 W/m 2,1 C 3,9 C 0,0 km/h (0 Bft)
09.03.2015 22:30 3,9 C 88 % 1025,5 hPa 0,0 l/m 0,0 km/h (0 Bft) NO 46 0 min 0,000 mm 0,0 UV-I 0 W/m 2,1 C 3,9 C 0,0 km/h (0 Bft)
09.03.2015 22:35 3,8 C 89 % 1025,5 hPa 0,0 l/m 0,0 km/h (0 Bft) NO 46 0 min 0,000 mm 0,0 UV-I 0 W/m 2,2 C 3,8 C 0,0 km/h (0 Bft)
09.03.2015 22:40 3,8 C 88 % 1025,5 hPa 0,0 l/m 0,0 km/h (0 Bft) NO 46 0 min 0,000 mm 0,0 UV-I 0 W/m 2,0 C 3,8 C 0,0 km/h (0 Bft)
09.03.2015 22:45 3,7 C 88 % 1025,5 hPa 0,0 l/m 0,0 km/h (0 Bft) NO 46 0 min 0,000 mm 0,0 UV-I 0 W/m 1,9 C 3,7 C 0,0 km/h (0 Bft)
09.03.2015 22:50 3,7 C 88 % 1025,5 hPa 0,0 l/m 0,0 km/h (0 Bft) NO 46 0 min 0,000 mm 0,0 UV-I 0 W/m 1,9 C 3,7 C 0,0 km/h (0 Bft)
09.03.2015 22:55 3,6 C 89 % 1025,5 hPa 0,0 l/m 0,0 km/h (0 Bft) NO 46 0 min 0,000 mm 0,0 UV-I 0 W/m 2,0 C 3,6 C 0,0 km/h (0 Bft)
09.03.2015 23:00 3,5 C 88 % 1025,5 hPa 0,0 l/m 0,0 km/h (0 Bft) NO 46 0 min 0,000 mm 0,0 UV-I 0 W/m 1,7 C 3,5 C 0,0 km/h (0 Bft)
09.03.2015 23:05 3,4 C 88 % 1025,4 hPa 0,0 l/m 0,0 km/h (0 Bft) NO 46 0 min 0,000 mm 0,0 UV-I 0 W/m 1,6 C 3,4 C 0,0 km/h (0 Bft)
09.03.2015 23:10 3,3 C 89 % 1025,4 hPa 0,0 l/m 0,0 km/h (0 Bft) NO 46 0 min 0,000 mm 0,0 UV-I 0 W/m 1,7 C 3,3 C 0,0 km/h (0 Bft)
09.03.2015 23:15 3,2 C 89 % 1025,4 hPa 0,0 l/m 0,0 km/h (0 Bft) NO 46 0 min 0,000 mm 0,0 UV-I 0 W/m 1,6 C 3,2 C 0,0 km/h (0 Bft)
09.03.2015 23:20 3,1 C 89 % 1025,4 hPa 0,0 l/m 0,0 km/h (0 Bft) NO 46 0 min 0,000 mm 0,0 UV-I 0 W/m 1,5 C 3,1 C 0,0 km/h (0 Bft)
09.03.2015 23:25 2,9 C 89 % 1025,5 hPa 0,0 l/m 0,0 km/h (0 Bft) NO 46 0 min 0,000 mm 0,0 UV-I 0 W/m 1,3 C 2,9 C 0,0 km/h (0 Bft)
09.03.2015 23:30 2,8 C 90 % 1025,5 hPa 0,0 l/m 0,0 km/h (0 Bft) NO 46 0 min 0,000 mm 0,0 UV-I 0 W/m 1,3 C 2,8 C 0,0 km/h (0 Bft)
09.03.2015 23:35 2,8 C 90 % 1025,5 hPa 0,0 l/m 0,0 km/h (0 Bft) NO 46 0 min 0,000 mm 0,0 UV-I 0 W/m 1,3 C 2,8 C 0,0 km/h (0 Bft)
09.03.2015 23:40 2,7 C 90 % 1025,5 hPa 0,0 l/m 0,0 km/h (0 Bft) NO 46 0 min 0,000 mm 0,0 UV-I 0 W/m 1,2 C 2,7 C 0,0 km/h (0 Bft)
09.03.2015 23:45 2,6 C 90 % 1025,6 hPa 0,0 l/m 0,0 km/h (0 Bft) NO 46 0 min 0,000 mm 0,0 UV-I 0 W/m 1,1 C 2,6 C 0,0 km/h (0 Bft)
09.03.2015 23:50 2,6 C 91 % 1025,5 hPa 0,0 l/m 0,0 km/h (0 Bft) NO 46 0 min 0,000 mm 0,0 UV-I 0 W/m 1,3 C 2,6 C 1,6 km/h (1 Bft)
09.03.2015 23:55 2,7 C 92 % 1025,5 hPa 0,0 l/m 0,3 km/h (0 Bft) NW 312 0 min 0,000 mm 0,0 UV-I 0 W/m 1,5 C 2,7 C 3,2 km/h (1 Bft)
_ Min-Zeit 04:55 15:50 00:35 - 00:00 - - - - - - 04:55 04:55 00:00
Minimum _ -0,9 C 53 % 1024,7 hPa - 0,0 km/h (0 Bft) - - - - - - -1,9 C -0,9 C 0,0 km/h (0 Bft)
_ Max-Zeit 14:40 08:30 08:05 00:00 11:35 - - 07:30 15:05 11:45 11:50 14:35 14:40 11:50
Maximum _ 16,7 C 95 % 1027,9 hPa 0,0 l/m 10,7 km/h
O-NO (2 Bft)
- - 5 min 0,279 mm 2,2 UV-I 763 W/m 7,8 C 16,3 C 20,9 km/h
O (4 Bft)
Durchschnitt _ 6,4 C 80 % 1026,2 hPa #0,0 l/m 1,2 km/h (1 Bft) NO - #6:30 h #1,600 mm 1,2 UV-I 264 W/m 2,9 C 6,3 C 3,5 km/h (1 Bft)